RH
67 43 40 39 33 22 23 27 36 75 91 86 84 79 75 69 61 58 60 59 57 52 42 37 36 43 66 85 86 87 88 89 89 86 86 87 86 87 87 88 88 88 89 89 89 88 88 88 85 82 74 64 57 57 66 76 79 77 77 73 68 69 68 59 57 61 57 53 51 49 48 50 70 84 80 76 75 76 77 83 79 72 86 93 91
70 45 39 37 31 22 26 32 41 77 92 83 80 79 73 64 59 61 64 62 56 43 35 34 44 62 80 87 87 88 88 90 90 89 89 89 88 89 90 87 86 87 88 88 88 87 87 86 80 70 53 42 38 37 43 59 75 76 73 70 68 67 59 53 60 69 63 55 48 43 43 43 51 62 70 74 72 72 73 73 61 63 87 92 90
62 42 38 36 30 22 26 34 40 70 88 80 76 79 74 67 64 66 67 59 45 33 34 45 65 80 85 87 87 89 89 91 91 90 91 92 91 91 90 87 87 86 86 85 85 85 86 84 73 58 45 45 49 48 43 45 59 69 68 65 61 54 49 52 62 71 69 63 59 55 49 43 44 46 53 66 70 71 69 55 43 57 78 82 86
57 45 39 34 30 22 24 34 40 60 79 78 75 77 74 73 71 68 63 51 37 34 49 65 80 86 86 87 87 89 89 89 90 90 91 91 91 91 89 87 85 83 83 83 84 85 87 83 68 59 56 57 59 59 58 53 53 57 57 57 53 45 46 54 62 70 75 73 72 71 62 48 42 41 37 44 55 60 56 42 47 73 82 72 76
60 44 37 33 33 24 23 35 40 52 71 79 76 74 74 74 73 67 58 50 47 54 71 81 85 86 87 88 88 88 88 89 89 89 91 90 90 89 85 83 82 81 82 81 85 87 88 82 72 72 71 64 62 61 62 63 60 57 52 51 48 44 49 57 61 69 76 77 75 72 72 60 38 41 42 38 42 39 39 51 74 90 91 82 82
58 45 48 43 39 30 23 33 39 47 68 83 81 76 75 76 71 62 56 61 68 74 82 85 86 86 88 89 89 88 87 88 88 89 90 92 92 89 84 81 81 83 85 84 85 88 89 85 80 82 76 65 64 64 64 65 64 63 59 49 40 43 53 59 62 66 72 74 75 69 71 70 49 58 72 68 68 57 48 65 90 90 87 90 90
58 61 73 60 46 35 24 32 40 45 62 84 90 82 76 74 65 59 63 74 80 82 84 86 87 87 88 88 89 88 88 88 89 90 91 93 92 91 87 83 83 84 88 89 85 85 89 89 87 83 68 59 62 65 66 67 63 63 59 41 32 44 53 56 59 62 65 65 70 67 67 72 59 73 92 89 89 85 73 71 87 91 87 89 90
63 69 80 67 48 36 26 32 42 44 58 81 87 77 72 66 58 63 73 80 83 84 84 85 86 87 88 88 89 89 91 91 89 89 88 91 91 89 84 82 83 80 85 88 85 85 90 94 89 73 57 55 60 63 65 65 63 59 46 28 30 48 53 53 57 57 59 57 60 60 63 72 64 76 94 90 89 91 89 83 86 90 89 89 91
63 70 77 64 47 37 28 32 41 46 59 73 74 69 64 58 60 70 78 84 85 84 85 86 88 89 89 90 90 90 94 91 86 86 85 86 86 83 77 77 75 72 78 81 84 87 92 94 79 59 53 56 59 61 63 61 58 49 31 27 41 53 55 55 56 53 56 55 56 57 63 74 73 82 93 88 89 91 93 91 84 83 87 87 90
66 73 70 52 44 42 32 34 42 49 59 63 64 61 58 58 68 76 81 87 86 85 86 88 91 91 91 93 93 93 93 87 83 83 83 83 81 79 75 74 71 71 77 80 84 89 89 82 62 52 53 58 60 60 62 57 49 37 30 40 53 56 58 58 52 44 48 52 54 59 63 71 77 87 91 88 90 90 90 87 80 81 86 84 88
69 74 70 52 45 45 38 38 43 47 51 53 51 53 61 67 74 80 82 85 85 85 87 89 91 92 93 93 94 92 87 81 78 77 76 76 75 78 77 76 74 77 84 85 88 90 86 72 56 52 54 59 61 60 62 53 39 34 43 54 58 58 60 60 54 45 44 47 48 55 64 67 75 87 88 88 92 87 83 80 79 82 83 81 82
71 76 73 58 48 49 45 40 41 42 43 45 45 56 71 74 79 84 83 84 86 86 87 90 91 93 94 93 92 86 80 74 70 67 66 65 64 71 77 79 75 79 87 88 89 85 82 71 56 52 53 61 61 60 63 52 35 38 53 58 58 59 58 58 54 49 44 47 53 58 66 63 67 86 90 89 92 87 81 79 78 79 81 77 75
77 73 60 60 65 60 49 42 40 40 43 49 57 70 79 78 81 83 82 85 88 88 88 91 92 94 93 90 86 78 72 66 61 59 57 55 55 59 67 76 76 77 77 79 80 68 70 68 56 53 53 61 61 59 64 53 37 42 57 58 58 57 55 57 50 48 44 47 60 64 65 58 62 86 92 89 91 88 86 85 83 86 87 82 82
80 67 57 76 87 73 53 45 43 44 52 62 70 76 79 78 79 80 83 87 90 92 90 91 93 92 89 85 79 72 66 59 54 53 52 49 49 51 52 61 72 79 72 66 62 47 58 65 55 53 52 60 62 58 62 57 40 42 58 57 56 57 56 58 52 47 41 46 63 68 63 57 68 89 92 90 92 88 88 89 87 90 90 88 92
74 64 68 90 94 84 66 51 47 51 59 68 74 77 81 81 81 84 88 90 91 94 92 92 92 88 84 80 75 72 67 58 52 50 51 50 49 48 46 49 57 69 68 60 51 39 53 62 54 52 50 58 62 58 60 59 45 41 53 55 55 58 58 57 52 46 41 50 64 67 58 51 66 88 93 90 89 87 90 92 90 90 89 91 93
72 63 71 88 90 90 83 71 60 57 64 70 77 84 88 87 86 88 91 94 93 93 92 91 89 84 80 78 76 74 69 61 54 50 52 53 52 43 39 43 43 47 52 54 45 34 51 61 54 51 48 55 61 59 58 58 51 42 47 55 57 57 58 56 52 49 44 48 60 66 60 52 61 81 92 88 89 91 93 94 92 91 90 88 88
76 68 73 86 88 89 91 90 76 65 70 74 81 90 91 90 89 90 92 94 93 93 91 90 86 81 80 79 76 74 71 63 53 50 55 58 55 46 37 34 33 35 38 45 38 30 51 60 54 52 46 51 59 59 56 57 54 46 47 54 57 56 57 56 52 48 43 47 61 70 63 56 58 74 90 88 90 92 92 93 91 92 93 89 87
74 74 79 82 85 86 88 92 84 80 82 80 84 89 90 90 90 91 92 93 93 92 90 89 84 80 81 79 76 75 72 64 54 51 55 59 58 54 44 32 26 28 28 33 30 28 53 62 54 53 46 46 57 59 56 56 55 48 46 54 56 55 57 55 54 48 44 51 64 69 56 50 53 69 89 89 89 91 92 93 91 93 93 92 91
72 76 78 76 79 81 85 87 84 86 88 87 85 86 88 90 90 91 92 92 92 92 90 88 84 83 80 75 73 72 72 68 57 52 55 57 62 66 55 40 28 24 22 22 22 23 45 60 54 52 47 43 51 58 57 55 56 50 46 54 57 58 57 53 55 51 49 53 61 63 46 42 49 63 87 92 91 92 91 88 88 92 92 91 93
70 72 73 73 75 77 82 82 80 83 84 88 90 88 88 89 90 91 92 91 91 92 91 88 85 81 75 74 72 72 76 71 59 53 56 52 60 76 68 54 40 27 22 17 16 18 32 49 50 49 46 40 46 55 58 55 55 52 47 51 51 56 57 51 53 50 48 50 55 59 46 43 49 60 83 89 88 91 89 84 84 91 91 91 93
67 66 66 67 73 76 79 78 79 83 82 86 93 91 87 90 91 91 93 91 92 93 90 86 81 77 75 75 73 77 79 72 69 63 60 57 58 68 65 58 46 27 22 19 16 15 22 37 42 45 44 39 43 49 55 56 56 54 50 47 43 49 54 51 53 47 45 48 53 59 51 46 48 58 80 85 85 89 87 83 84 90 90 89 92
62 60 60 65 73 74 76 78 80 82 84 85 90 92 89 91 92 91 92 91 91 88 88 84 76 75 73 72 76 88 89 83 88 76 70 74 63 59 56 52 48 32 23 22 20 17 19 29 35 39 41 39 40 45 57 61 57 54 52 51 45 48 58 55 53 48 46 50 55 60 54 48 49 57 73 78 83 88 83 82 85 87 87 89 91
58 57 59 66 72 71 73 77 80 82 84 84 86 90 89 90 90 92 93 92 90 84 88 89 80 76 71 76 85 92 94 90 92 86 86 83 64 62 58 46 48 42 31 25 21 20 20 25 34 38 38 40 37 44 68 76 66 56 52 54 48 49 62 61 53 47 47 52 52 57 55 51 52 56 65 69 79 88 83 83 86 84 86 87 86
57 57 62 70 70 68 71 75 80 82 83 83 83 84 85 85 84 88 91 93 93 89 91 90 85 83 78 81 85 83 84 84 83 84 88 79 66 66 56 43 49 52 45 36 27 30 35 27 26 34 34 38 36 41 66 78 75 68 59 56 51 53 63 59 52 47 49 53 52 55 58 54 53 57 62 64 76 88 86 84 83 83 86 84 81
58 60 65 72 69 67 71 75 79 81 81 82 80 80 78 75 75 79 83 88 92 90 90 87 82 81 77 74 75 73 71 74 71 69 77 77 75 67 55 54 60 65 61 55 54 55 59 43 30 36 34 31 34 41 55 63 71 72 65 66 62 63 64 56 51 49 49 54 54 56 58 55 53 56 59 61 70 80 83 79 79 85 86 84 82
61 63 68 73 72 71 74 77 80 80 80 79 77 75 71 68 69 70 74 81 84 84 82 79 74 72 71 66 68 68 63 68 65 63 73 73 75 71 67 71 70 77 71 64 75 73 69 62 54 56 48 39 39 45 49 50 61 62 61 67 66 65 63 56 52 49 48 54 55 56 58 56 54 56 57 59 67 76 78 73 76 86 85 84 84
63 65 70 75 75 75 78 79 79 79 79 77 72 69 66 64 65 64 68 73 75 77 73 67 68 68 66 62 64 65 61 66 65 66 71 64 66 70 71 73 68 77 72 59 70 69 63 64 62 60 57 51 47 47 46 43 48 51 54 58 58 60 59 56 54 50 50 55 57 57 59 60 58 57 58 58 65 77 77 73 79 86 84 85 84
64 68 72 77 78 77 79 78 77 77 77 74 68 65 61 58 59 60 63 64 65 67 64 60 63 63 61 62 65 67 64 66 66 67 69 65 68 70 67 69 65 72 72 60 63 63 58 59 57 56 55 53 51 49 47 44 43 44 46 47 49 53 56 56 55 54 54 57 60 59 60 64 61 58 60 59 61 72 74 74 83 87 84 85 84
66 71 75 79 79 78 79 77 76 75 75 72 65 62 57 53 55 58 58 59 58 58 58 57 60 61 62 65 65 67 68 66 67 68 71 73 76 75 71 73 72 73 74 68 70 69 63 62 60 58 58 56 55 54 52 52 50 47 45 43 44 46 51 55 55 57 58 58 62 62 63 64 64 62 62 61 61 66 70 75 84 85 84 86 87
67 73 78 81 80 79 79 77 76 74 74 70 62 58 54 52 55 56 56 56 55 55 57 57 61 63 65 67 66 68 70 68 71 72 74 77 78 77 75 78 77 75 77 75 75 74 69 68 67 65 66 65 61 59 58 58 57 56 52 48 47 46 50 54 55 59 61 62 64 67 69 67 67 68 66 65 63 63 65 74 82 82 83 86 89
71 75 78 81 80 78 78 77 77 74 73 68 59 54 51 55 55 54 57 54 55 58 58 60 64 65 67 69 68 70 74 74 76 77 77 77 77 76 76 78 77 75 78 77 75 76 75 74 74 74 73 72 70 68 67 64 62 60 59 56 53 51 52 56 60 62 64 65 67 70 73 72 70 69 68 66 65 64 63 69 77 80 80 82 88
76 78 79 82 79 77 78 77 76 74 72 64 56 52 52 57 53 54 59 53 55 62 61 64 65 65 68 69 69 74 78 79 79 79 80 78 75 76 78 78 78 78 78 79 79 77 79 79 77 77 75 75 75 73 72 69 67 65 62 60 58 56 54 56 61 63 64 66 70 71 72 72 71 71 71 69 67 66 64 66 74 80 79 82 87
78 79 80 81 78 78 78 78 77 74 69 61 54 52 54 56 53 58 60 53 60 66 63 67 65 64 69 70 74 79 80 80 79 79 81 81 78 77 75 76 79 80 81 83 82 77 80 82 78 77 78 78 76 73 72 70 70 68 65 63 61 61 58 58 62 62 63 65 68 70 72 73 71 71 72 72 70 68 68 65 70 79 80 83 88
77 78 79 80 77 78 79 79 78 72 68 61 53 52 56 58 60 63 58 57 67 66 63 67 64 66 71 72 77 82 81 80 81 81 80 76 72 70 67 71 78 83 84 84 83 83 85 84 79 80 79 79 76 73 74 72 70 68 67 66 64 64 62 61 63 64 64 68 70 72 77 75 73 77 76 73 72 71 73 68 68 74 76 82 89
75 77 79 79 78 78 80 79 76 71 67 60 54 55 59 61 63 64 62 67 70 64 64 66 65 69 73 73 78 82 82 82 84 84 82 75 73 78 79 81 85 86 86 84 86 87 85 82 80 81 80 79 78 74 73 71 69 69 69 67 67 68 67 66 67 66 67 70 74 76 80 77 76 83 81 76 74 73 75 73 70 71 72 77 85
74 77 79 78 78 80 80 79 75 70 65 60 57 59 62 63 63 64 64 64 66 64 66 67 69 72 75 78 81 83 84 84 84 83 85 84 85 90 90 88 87 83 83 84 86 83 79 80 80 80 80 81 79 74 71 70 69 69 70 69 71 73 72 70 69 68 67 69 70 71 77 78 80 83 79 77 77 74 73 74 74 71 71 72 78
76 77 78 77 77 80 80 80 77 70 65 63 62 63 66 65 63 65 65 66 74 77 75 75 77 78 78 82 84 85 84 85 85 83 84 84 84 86 84 84 82 80 83 83 81 78 75 77 79 78 77 77 77 74 72 72 71 70 70 71 72 74 73 71 70 70 71 70 68 68 70 74 78 78 74 76 79 79 75 74 76 74 72 71 74
80 80 78 76 77 79 79 79 75 69 66 66 67 67 68 68 71 75 74 74 80 80 78 84 90 89 87 86 87 87 83 84 86 84 84 82 80 79 78 80 79 79 83 82 77 75 74 76 79 78 76 77 76 74 73 74 74 74 73 73 73 75 76 75 73 75 76 73 72 72 73 73 74 73 72 73 75 78 78 75 77 78 75 73 74
84 82 78 78 80 80 79 77 73 71 70 71 71 70 72 75 78 78 75 74 73 75 77 82 87 88 89 89 89 88 84 85 84 83 83 82 79 76 75 78 78 78 79 78 74 71 72 75 76 76 76 78 77 73 73 74 76 76 76 76 73 71 73 76 77 77 77 77 76 77 78 76 76 77 75 72 71 75 79 78 78 81 79 77 77
86 82 78 80 82 81 80 76 74 75 75 75 73 73 78 80 78 74 76 79 79 82 80 76 80 83 84 86 87 88 84 83 83 83 84 83 79 76 75 77 76 75 76 75 74 72 73 74 75 75 76 77 76 73 71 72 74 75 73 69 66 64 65 69 74 77 78 78 78 79 79 77 77 79 78 75 76 78 79 79 80 83 83 81 81
88 84 80 81 82 82 79 77 77 77 76 76 74 74 77 80 82 79 80 87 87 87 85 81 86 89 84 81 83 86 85 83 83 83 84 84 81 78 78 79 77 75 76 76 75 75 75 75 75 74 75 75 73 70 69 70 72 72 69 64 61 61 60 60 64 70 75 75 75 76 75 77 77 77 76 76 78 80 79 80 82 83 83 83 84
88 86 83 81 81 78 76 79 78 75 76 76 74 76 77 77 82 80 79 86 86 83 84 84 86 87 86 83 80 84 85 82 83 83 85 85 83 82 81 79 78 77 77 76 76 75 76 75 74 74 75 74 70 67 69 72 73 72 71 70 67 61 55 55 59 65 71 72 72 73 72 74 77 77 78 78 77 77 78 80 81 81 83 85 87
85 85 85 82 80 78 78 78 72 71 78 79 77 80 80 75 75 79 81 83 83 80 80 85 83 78 81 85 82 83 83 78 81 84 85 85 84 84 82 81 81 81 80 78 77 76 76 77 78 78 78 77 73 67 67 70 73 73 73 76 75 69 63 59 62 65 67 67 67 71 73 73 76 78 79 80 79 78 78 78 79 79 81 83 88
81 84 86 83 81 81 78 73 70 78 87 85 84 84 83 79 76 82 87 84 85 85 82 87 86 78 82 88 86 84 82 79 83 84 83 84 85 84 85 86 84 83 81 79 77 74 75 78 80 82 81 80 77 72 70 68 68 72 78 81 76 74 74 69 69 67 61 62 64 68 72 73 76 80 81 79 79 79 78 78 80 80 80 82 86
80 82 84 84 84 81 74 73 81 91 90 85 85 83 84 85 81 87 93 89 88 88 84 86 87 86 91 93 88 86 85 84 85 83 82 83 84 84 85 85 81 80 79 78 77 75 74 75 75 78 79 79 77 78 77 73 69 68 75 83 80 77 78 75 77 71 60 61 63 63 67 71 73 77 78 79 80 79 78 79 80 80 81 84 85
82 82 84 86 84 77 74 80 91 92 87 86 84 81 86 91 89 93 97 94 93 91 84 83 82 83 87 85 83 86 84 85 85 81 81 80 80 82 81 80 78 76 75 74 74 75 74 72 71 73 75 77 78 79 78 76 73 68 67 74 79 82 83 82 86 81 69 63 61 61 65 68 70 71 73 78 81 80 77 79 81 81 82 85 86
84 85 85 85 82 79 81 85 89 91 91 91 86 85 90 93 93 93 93 92 93 89 82 78 76 76 79 77 79 84 82 82 82 78 77 77 77 78 77 78 77 72 69 68 68 70 71 72 74 75 76 77 79 79 79 77 76 73 69 69 72 76 79 82 88 88 85 78 68 65 66 65 67 68 71 76 80 80 77 77 81 82 81 83 87
85 87 85 85 86 86 88 89 89 93 98 97 91 88 87 87 88 87 88 89 86 84 81 79 78 77 78 76 79 84 82 78 79 78 78 77 75 75 74 74 74 72 68 65 65 68 71 74 75 75 76 77 78 79 78 77 77 76 73 71 71 71 71 73 77 82 92 92 79 72 69 65 63 64 68 72 75 77 77 77 78 81 81 82 85
87 89 87 90 93 91 92 96 97 97 100 99 93 89 85 85 85 80 81 84 81 80 80 79 80 81 79 78 79 80 78 78 81 81 79 77 76 76 75 74 73 72 69 66 68 70 73 74 74 75 75 76 76 76 75 75 76 76 75 74 73 72 71 69 68 70 81 89 87 80 73 68 64 61 61 63 67 72 78 79 76 77 79 80 81
88 89 90 94 97 94 94 98 99 99 101 99 94 90 88 85 83 78 77 80 79 78 77 77 79 80 78 77 77 77 77 79 80 80 78 77 76 76 74 74 74 73 72 72 74 77 77 77 76 76 75 74 74 73 73 73 72 73 74 74 74 74 73 72 69 68 71 78 82 79 71 67 67 63 59 57 58 64 72 76 77 77 77 78 79
89 90 93 95 95 94 94 97 99 100 100 97 91 86 84 81 78 77 78 79 78 76 77 77 75 74 74 74 75 75 75 75 74 75 76 75 74 74 74 74 75 75 76 77 78 80 79 79 78 77 75 74 73 73 73 72 72 73 74 75 75 75 75 75 72 70 72 74 76 75 69 65 66 64 59 56 54 55 62 70 77 79 77 74 75
Wind_Speed
20 24 23 19 18 17 17 17 17 18 18 18 17 16 16 16 15 15 13 12 10 10 10 9 10 12 12 11 12 12 12 13 13 14 14 14 14 14 14 15 15 15 14 14 14 14 14 13 13 12 12 12 12 11 10 10 9 9 10 10 11 12 13 12 13 13 9 7 8 9 11 12 12 11 11 10 12 15 14 14 13 11 13 12 11
23 25 23 20 18 18 18 17 18 18 18 19 18 17 17 17 16 14 13 12 10 10 11 12 14 14 12 11 12 12 12 13 13 14 14 14 14 14 15 15 14 14 14 13 13 13 13 12 11 11 12 13 13 12 10 9 8 9 9 10 11 12 12 12 12 12 11 9 8 8 9 9 10 9 9 9 10 13 14 13 11 11 13 12 11
26 26 23 20 19 19 19 18 19 19 19 19 19 18 17 17 16 15 14 12 12 13 14 15 15 13 12 12 12 12 13 13 13 14 14 14 14 13 14 14 13 13 12 12 12 12 12 11 11 11 12 13 14 14 13 10 9 9 9 9 9 11 12 12 11 10 11 12 12 11 9 8 8 8 8 8 8 9 8 8 11 13 12 11 11
27 26 23 21 20 19 20 19 19 19 19 20 20 19 18 17 17 16 15 14 15 16 16 15 14 13 12 12 12 12 13 13 13 13 13 13 13 13 13 13 13 12 12 11 11 11 11 11 10 10 11 12 12 13 13 12 10 9 8 8 8 11 12 10 8 8 8 11 13 13 11 10 9 8 8 7 6 5 5 7 11 15 14 12 12
29 26 24 23 21 20 20 20 20 20 20 20 20 19 18 17 17 17 15 16 17 17 16 14 14 13 13 12 12 12 13 13 13 13 13 13 13 13 13 13 12 12 11 11 10 10 11 10 10 10 10 10 11 11 11 11 11 10 9 8 9 11 11 8 7 6 6 6 7 10 10 12 12 13 12 12 11 8 7 9 13 13 14 14 14
29 26 24 23 22 21 20 21 20 21 21 20 20 20 19 18 18 17 16 17 17 16 15 15 14 14 13 13 12 12 13 13 13 13 13 13 13 12 12 12 12 11 11 10 10 10 10 9 9 9 9 9 9 10 10 10 10 10 9 8 9 11 10 9 7 6 5 3 4 8 8 9 12 15 15 15 16 14 12 12 13 13 13 13 14
27 25 21 23 23 22 21 21 21 21 22 21 21 22 21 19 19 18 18 18 16 15 15 15 14 14 13 13 13 13 13 13 14 14 14 13 12 12 12 12 11 11 10 10 9 9 9 9 8 7 8 9 9 9 9 9 8 9 8 8 10 12 11 9 7 5 4 4 3 8 8 7 10 13 13 13 14 14 13 12 13 13 12 12 13
25 23 19 22 23 22 22 21 22 21 22 22 22 23 22 21 20 19 19 18 16 15 15 14 14 14 13 13 13 13 13 13 13 13 14 13 12 12 11 12 11 9 9 9 8 9 9 8 7 7 8 9 9 9 9 8 8 8 8 10 12 12 10 8 8 7 6 6 6 9 9 7 9 12 12 11 11 11 12 12 12 13 12 11 12
24 22 20 22 23 23 23 22 22 22 23 23 23 22 22 21 20 21 20 18 16 15 15 14 14 13 13 13 13 13 12 12 12 12 12 12 11 11 11 11 9 8 8 8 8 8 7 7 7 7 8 9 9 9 10 8 7 8 9 13 13 10 9 8 10 10 9 8 10 13 11 10 10 12 12 10 10 10 10 10 10 10 10 11 11
24 22 22 23 24 24 23 23 22 22 23 22 22 21 22 23 22 22 20 18 16 15 14 14 14 13 13 13 12 11 11 11 11 10 10 10 10 9 9 9 8 7 7 7 6 6 6 6 7 8 8 9 9 10 10 9 7 8 11 13 11 9 8 9 11 12 11 10 10 12 11 9 10 11 11 10 10 9 8 6 7 8 8 9 10
24 23 23 24 25 25 24 23 22 23 22 22 21 22 24 24 23 21 19 18 16 15 14 14 14 14 13 12 11 10 10 10 9 9 10 9 9 8 8 8 8 8 7 7 5 5 5 6 7 7 8 9 9 10 10 9 7 9 12 11 9 7 7 7 9 9 9 10 10 10 9 7 10 11 10 10 9 7 5 5 6 7 8 8 8
26 25 24 25 25 25 25 24 23 23 22 23 23 25 25 23 22 20 19 18 16 15 14 14 14 13 13 12 11 10 8 8 7 8 8 8 8 8 8 8 9 9 8 7 5 4 5 5 6 6 8 9 9 9 10 9 7 9 11 9 8 7 7 8 9 8 6 10 11 10 9 7 9 11 10 9 9 7 7 6 7 8 9 8 7
27 27 26 25 23 25 25 24 24 23 23 25 26 26 24 22 21 19 19 18 16 15 15 14 14 13 12 11 10 9 7 6 6 6 6 7 7 8 9 8 9 9 8 8 6 5 6 6 6 6 7 8 8 9 9 10 8 8 9 8 7 6 7 9 11 9 7 10 9 6 5 6 8 10 9 9 8 8 8 7 7 9 9 9 9
29 29 28 24 20 23 25 24 23 24 25 26 27 26 23 22 20 19 19 17 16 15 15 14 14 13 12 11 9 8 6 4 4 4 5 5 6 7 9 9 10 10 8 8 6 4 7 7 6 6 7 8 8 8 8 9 7 7 8 7 6 6 7 8 10 8 7 9 8 4 4 6 7 8 8 7 7 6 6 7 7 9 8 8 9
30 30 27 24 20 21 23 23 23 24 26 27 26 24 22 21 19 19 18 17 16 15 15 15 14 13 12 10 8 7 5 4 4 4 5 4 5 5 6 8 9 11 10 8 8 5 7 9 7 6 7 8 7 7 7 8 7 6 6 5 5 6 7 8 9 7 5 8 8 4 5 6 6 8 7 5 5 5 6 6 7 8 7 7 7
30 30 27 25 22 20 20 21 23 25 26 26 25 22 21 19 19 19 18 18 16 16 15 15 14 12 11 10 8 6 4 4 4 5 5 4 4 4 4 5 6 8 9 9 9 6 8 9 7 6 6 6 6 6 5 6 6 5 4 4 4 5 7 7 8 6 4 8 6 2 4 6 5 7 6 5 5 5 5 5 5 6 5 5 5
28 29 27 25 23 21 20 19 22 25 24 24 22 22 20 18 18 18 18 17 16 16 16 15 14 12 11 10 8 6 4 5 5 5 5 5 6 6 5 4 4 4 6 8 9 8 9 10 8 6 6 5 5 5 4 4 5 4 4 5 6 6 6 6 8 6 4 6 6 3 2 4 4 5 5 4 4 4 3 3 3 4 4 4 4
26 27 27 25 22 21 21 20 21 22 22 22 20 20 20 18 17 17 17 16 17 16 15 15 13 12 11 9 7 5 4 5 5 5 5 5 6 6 5 5 4 3 4 6 8 9 10 10 8 6 5 4 4 4 3 3 3 5 5 7 6 5 4 4 5 5 4 5 6 4 2 4 2 3 5 3 3 3 2 2 2 2 2 3 3
26 26 26 24 22 21 22 22 21 20 20 20 19 18 18 18 17 16 16 16 17 16 15 14 12 11 10 8 6 4 4 5 5 5 5 5 5 5 4 5 4 4 3 5 7 9 10 9 8 6 4 4 3 3 2 2 3 4 7 8 5 3 3 3 3 1 4 4 4 2 3 4 2 1 4 4 3 2 1 2 2 1 2 2 1
26 25 25 23 22 22 23 22 21 20 20 18 18 18 18 18 17 16 16 16 16 16 15 13 12 10 9 7 5 5 5 5 5 4 3 3 4 3 2 3 4 4 3 4 6 8 10 9 8 6 4 3 2 1 1 2 3 3 6 6 3 3 4 4 5 3 4 4 4 2 3 5 2 1 3 3 3 2 0 4 4 2 2 2 1
25 25 24 24 23 23 22 22 22 21 20 19 17 17 19 18 17 17 16 16 16 16 14 12 11 9 8 8 6 7 6 6 5 3 2 2 3 2 1 2 3 3 3 3 5 7 9 9 8 7 5 4 2 1 1 2 4 4 5 5 3 0 2 4 7 5 2 5 5 4 2 4 3 1 2 2 2 3 3 6 3 1 2 2 2
24 24 24 26 25 24 23 22 22 21 20 20 18 17 19 18 17 18 17 17 16 15 14 12 11 10 9 8 8 8 6 6 5 2 2 1 2 1 1 2 3 4 3 3 3 5 7 8 7 7 6 4 4 4 4 3 4 5 6 6 6 4 2 5 6 6 2 5 6 3 2 4 5 2 2 2 3 5 6 6 1 0 3 2 2
22 23 25 27 26 25 25 24 23 23 21 20 19 18 19 17 16 16 16 17 16 15 14 12 12 11 10 8 8 9 8 7 6 5 4 1 3 4 4 2 3 5 4 3 2 2 4 6 7 7 6 6 6 5 4 6 7 6 7 7 7 6 3 5 7 7 4 5 6 4 3 5 6 3 1 2 3 6 5 2 2 2 3 3 3
22 22 25 27 25 25 25 25 24 24 22 20 20 20 20 18 16 15 15 16 16 14 13 13 12 11 9 7 8 9 10 7 5 5 5 3 3 4 3 2 2 3 3 3 3 3 1 4 6 7 8 8 9 7 6 10 10 8 7 8 9 7 5 7 8 8 5 4 5 6 5 6 6 4 3 2 3 5 3 2 4 3 4 5 6
22 23 24 25 24 24 26 26 25 24 22 21 22 22 22 20 18 17 15 15 16 15 15 15 12 12 11 7 8 10 8 6 4 3 5 6 3 2 2 1 1 2 1 2 1 1 4 3 5 6 8 9 10 9 10 14 13 10 10 9 8 8 8 9 9 10 8 5 5 7 7 7 7 6 5 4 4 6 6 7 6 4 6 7 8
22 22 23 25 24 25 27 26 26 24 22 22 22 22 22 20 20 19 17 17 16 16 16 15 13 13 12 8 9 11 8 7 5 3 5 7 5 2 2 2 3 3 2 3 5 5 5 4 5 6 7 7 8 9 11 13 13 11 11 10 9 9 11 11 10 10 8 8 8 8 9 9 9 8 6 5 5 6 7 8 5 4 8 8 7
22 23 24 25 25 26 27 27 26 23 22 21 21 23 23 21 21 20 19 19 17 18 16 15 14 14 13 10 8 8 8 8 5 4 5 7 7 4 4 5 4 5 4 4 6 8 6 7 9 9 9 7 8 10 11 12 11 12 13 13 11 10 12 12 11 10 9 9 9 9 10 10 10 10 9 7 6 7 8 7 4 4 8 7 7
22 23 25 25 25 27 27 26 25 23 22 21 21 22 22 21 21 19 20 20 17 18 17 15 15 13 12 11 9 8 7 7 6 7 7 9 9 8 7 8 7 6 6 6 6 8 7 7 8 9 9 9 9 10 11 11 12 13 14 14 12 11 13 13 11 11 9 9 9 9 11 11 11 10 10 10 8 9 9 7 4 5 9 8 7
23 23 25 26 25 27 26 25 24 22 21 22 22 19 18 19 20 19 19 19 17 17 16 15 14 14 12 9 10 11 8 7 8 10 10 10 9 8 8 7 6 5 5 7 6 7 8 7 8 8 8 9 10 11 11 11 12 13 15 15 13 13 14 13 13 13 10 10 11 11 11 12 12 12 12 12 10 10 9 6 6 7 8 10 8
23 24 25 26 26 26 25 24 24 22 21 22 20 16 16 17 18 18 17 17 16 15 14 14 13 13 13 10 10 11 9 9 11 11 10 8 8 8 8 5 5 4 4 6 6 7 8 7 8 9 8 9 11 11 11 11 11 12 14 15 13 12 10 12 15 14 12 12 11 11 12 13 13 13 12 13 12 12 11 9 8 8 9 10 8
24 24 24 25 26 26 25 24 23 22 22 21 18 15 16 16 17 16 14 16 15 13 14 14 12 11 12 12 12 11 8 9 10 10 8 7 8 7 6 5 5 5 5 7 7 6 7 7 7 8 8 9 10 10 11 12 12 12 13 14 15 14 11 10 12 15 14 14 12 11 12 13 14 15 14 14 14 14 13 12 9 7 11 12 9
23 24 24 25 26 25 24 24 22 22 22 18 15 16 16 14 17 16 12 15 15 13 13 12 12 12 12 12 12 11 10 9 8 9 8 7 8 7 7 6 6 6 6 7 8 7 7 8 8 8 9 9 11 11 12 12 12 13 13 13 15 15 13 10 10 14 17 16 15 14 14 13 15 17 17 16 16 16 16 15 11 10 15 13 10
23 25 27 27 27 25 24 23 21 22 21 16 15 15 15 13 15 15 13 14 14 13 13 11 11 12 14 13 11 12 11 9 8 9 8 7 8 7 7 7 7 7 7 8 9 9 8 7 8 8 8 9 11 11 11 11 11 13 13 13 13 13 13 11 10 12 16 17 17 17 15 13 15 18 19 18 18 18 17 17 14 15 17 13 12
25 27 29 27 26 24 23 22 21 21 20 15 16 15 14 13 13 13 13 13 13 13 12 12 11 11 13 12 11 11 10 9 9 9 7 6 6 4 5 6 5 6 8 8 8 8 6 6 6 6 7 8 10 10 10 10 11 12 11 12 12 13 14 13 12 12 13 14 16 19 16 14 16 18 19 19 19 19 18 18 17 18 17 14 14
26 26 28 26 25 24 23 23 21 20 17 14 17 15 12 13 12 11 12 12 11 12 12 11 10 9 10 10 11 10 10 9 8 8 7 7 6 6 9 9 7 7 8 7 6 5 5 6 6 6 7 8 9 9 9 10 11 10 11 13 13 14 15 14 13 13 13 12 14 16 15 16 18 17 18 20 19 19 19 19 19 20 19 16 16
25 26 27 26 25 23 22 22 20 18 14 13 15 13 11 11 11 10 11 11 10 10 10 10 9 8 9 9 11 11 10 9 8 7 8 8 9 10 11 9 6 5 5 5 5 4 5 5 6 6 7 8 8 9 9 9 11 10 12 13 13 14 15 15 16 17 16 15 16 16 15 17 18 16 18 21 21 19 20 19 20 21 21 19 17
26 27 27 25 23 22 19 19 18 15 14 13 12 12 11 10 9 8 8 6 3 1 4 8 7 8 10 10 10 10 9 8 7 7 8 8 7 7 6 5 4 3 3 4 4 4 4 4 5 5 6 7 8 8 9 9 10 11 12 13 13 15 16 17 18 18 17 17 17 17 18 19 18 16 18 21 21 20 19 18 19 21 22 21 19
24 25 25 24 23 21 19 18 17 14 14 13 11 11 12 8 5 7 6 2 2 2 2 5 4 5 8 8 9 9 8 8 8 7 7 6 4 4 4 4 3 3 3 3 3 3 4 4 5 5 6 7 8 9 10 10 10 12 13 13 14 15 16 17 17 15 17 17 16 15 17 18 16 16 18 21 20 18 19 19 18 20 22 22 21
21 23 24 23 22 21 20 19 18 15 14 13 10 11 10 7 5 7 7 6 6 5 6 6 5 4 4 5 6 7 7 7 7 6 6 4 4 3 3 3 3 3 3 2 3 3 3 4 5 6 7 7 8 9 10 10 11 12 13 15 16 17 17 17 17 16 16 16 15 15 16 16 15 13 15 20 19 17 18 19 19 19 22 23 22
20 21 21 22 21 21 21 20 18 16 15 14 12 12 11 9 9 12 12 10 8 6 6 6 4 4 4 5 6 6 6 6 5 5 5 4 3 2 3 2 2 2 2 2 3 3 3 4 5 6 7 8 8 9 10 10 12 13 15 16 16 17 18 18 18 17 17 15 15 16 16 14 14 13 14 19 19 17 17 18 19 19 21 22 23
19 19 19 20 20 22 22 21 19 17 17 16 16 15 14 13 12 12 11 8 6 4 4 4 4 5 6 7 6 5 6 5 4 4 4 3 2 1 1 1 1 2 2 3 4 4 4 5 5 6 7 8 9 9 9 10 11 12 13 14 17 18 17 18 19 18 17 15 14 15 15 14 14 13 13 16 17 16 17 17 18 20 20 21 23
19 18 19 20 20 22 23 22 21 21 20 18 17 15 14 14 13 11 10 9 8 6 7 7 6 5 6 5 4 5 5 4 4 4 3 2 1 1 1 1 2 3 4 4 5 5 5 6 6 7 7 8 10 9 8 8 8 10 10 11 13 15 15 16 18 17 15 14 14 15 15 15 15 14 13 15 17 17 17 17 18 20 21 21 22
18 18 20 21 20 21 23 23 24 24 20 17 16 15 13 12 12 11 12 12 10 7 7 8 8 6 5 5 4 4 4 3 5 5 3 1 1 1 2 3 3 4 5 5 6 6 7 7 7 7 8 9 10 9 8 6 8 11 10 7 6 7 9 8 7 11 13 15 16 15 15 16 15 15 15 15 17 17 17 18 18 19 21 22 23
16 18 21 22 21 22 23 25 25 21 17 15 15 14 13 12 11 11 11 12 10 7 7 7 7 6 5 8 7 6 5 5 5 5 2 0 1 2 4 4 5 6 6 7 7 7 7 8 8 7 8 10 10 10 9 7 8 8 6 4 5 5 4 4 7 12 14 14 14 14 15 16 16 16 16 16 17 17 17 18 18 18 20 22 23
14 18 22 22 21 23 24 24 20 17 17 17 16 16 16 16 14 13 11 10 8 7 7 5 3 3 3 9 7 5 5 4 4 2 1 2 3 4 6 6 7 7 7 8 8 9 9 9 9 8 8 9 10 11 10 9 9 8 5 4 4 3 2 7 11 11 12 12 13 14 15 16 17 17 18 19 19 18 18 18 18 18 20 21 22
15 18 21 22 23 24 24 21 18 17 18 19 18 18 18 16 16 14 11 9 7 5 4 3 2 3 3 6 3 2 3 1 1 1 4 5 5 6 7 7 8 8 8 9 9 9 9 9 9 9 10 10 11 11 11 11 11 10 9 7 7 6 6 8 7 5 11 14 12 12 13 15 17 18 19 20 21 20 19 19 19 19 19 20 22
19 20 20 23 24 24 22 20 19 18 18 18 19 19 17 15 15 15 12 10 9 7 5 3 2 3 3 3 0 1 1 3 4 4 6 6 6 7 8 8 8 8 8 8 8 8 8 8 9 9 10 10 11 11 12 14 13 12 11 10 11 12 12 9 5 4 8 11 12 14 14 15 16 16 17 19 21 21 21 21 21 21 21 21 22
22 23 22 23 24 22 20 19 19 17 15 16 18 18 18 17 15 14 12 10 9 10 9 6 4 3 3 3 2 2 1 5 7 6 7 8 7 7 8 8 8 8 8 8 9 9 8 9 9 10 10 10 11 12 13 14 14 13 14 15 14 14 15 13 12 9 4 5 11 14 13 15 17 17 17 19 21 22 22 22 23 23 24 24 23
23 24 24 24 22 21 19 18 18 17 15 16 17 17 18 17 14 13 13 10 10 12 12 8 7 6 4 4 3 1 5 7 7 6 6 8 9 8 8 8 8 8 9 9 10 11 10 10 10 11 11 11 11 12 13 13 14 15 16 17 16 16 16 15 15 13 7 5 7 7 11 14 15 18 19 19 21 22 23 23 24 25 26 26 25
23 24 25 24 22 20 19 19 19 16 16 16 16 16 16 16 14 13 13 12 11 11 11 9 8 7 6 4 2 4 7 7 7 8 6 7 8 8 8 8 8 8 8 9 9 10 10 11 11 11 11 12 12 12 13 15 16 16 16 16 17 16 14 12 13 13 9 7 7 6 10 12 10 15 19 19 20 22 23 24 24 26 27 27 26
22 23 24 23 23 22 20 19 18 16 16 15 14 15 15 14 13 12 12 13 11 9 8 7 7 6 5 4 4 5 6 5 6 8 8 6 7 8 7 7 8 8 8 10 10 10 11 12 12 11 11 13 13 13 14 14 15 16 16 16 17 16 15 12 13 15 11 8 8 6 10 14 13 15 19 19 20 19 19 21 23 25 26 26 26
Wind_Direction
136 142 136 137 131 128 126 125 124 123 124 125 126 127 131 134 136 138 136 128 118 111 110 113 120 123 114 102 101 101 98 97 95 95 96 96 96 97 95 93 94 92 91 89 88 87 86 84 83 84 83 81 77 76 76 83 88 87 85 79 76 75 72 69 69 65 64 80 92 90 86 90 94 93 89 88 81 81 95 89 70 63 64 63 69
136 141 138 136 132 129 128 129 127 127 127 129 130 128 131 135 138 136 131 124 116 112 114 123 123 118 111 107 107 104 102 100 97 98 99 97 97 97 96 95 94 92 91 89 89 87 86 85 84 86 86 83 77 75 74 78 84 83 81 78 78 76 72 74 79 75 72 81 88 88 85 87 95 99 96 92 86 90 96 85 64 64 68 64 63
137 139 138 136 133 130 131 133 130 132 133 135 135 130 130 133 136 133 127 120 115 117 123 125 120 115 114 113 111 108 106 104 102 103 102 101 100 99 99 97 95 93 92 91 89 88 86 85 87 90 86 81 76 73 73 75 82 85 85 83 80 78 80 83 87 85 84 88 84 77 74 80 90 95 103 103 96 94 86 59 50 62 66 61 60
137 139 139 138 135 133 133 134 132 136 138 139 139 135 133 132 132 130 125 120 121 125 127 123 119 119 119 117 113 111 110 108 106 105 105 104 103 101 99 98 97 96 95 91 88 88 87 87 89 88 82 77 72 71 73 75 78 83 87 86 83 86 94 95 94 94 97 100 84 69 59 62 77 79 87 97 98 94 64 45 52 60 55 51 56
137 141 140 138 137 137 135 137 136 138 140 139 140 139 137 134 133 130 126 126 129 130 128 126 124 124 121 119 118 116 114 113 110 108 106 104 104 104 103 101 100 97 94 91 90 91 88 87 87 82 75 68 64 64 67 72 74 75 78 85 90 96 101 100 96 93 101 116 90 73 58 53 70 74 73 75 73 70 63 64 63 62 56 51 57
138 139 138 139 140 140 138 140 138 138 139 138 137 139 139 137 136 132 132 133 133 132 131 130 128 126 125 123 121 119 118 117 114 111 108 106 105 106 107 104 102 99 94 93 93 94 91 87 86 81 68 59 54 50 53 62 67 68 70 80 95 100 98 93 92 85 81 95 94 96 79 55 73 79 73 70 66 62 64 74 73 69 64 57 60
135 133 136 140 143 143 141 141 139 139 138 136 134 138 139 137 136 135 136 136 134 134 135 133 131 130 128 127 124 122 121 120 117 116 113 110 108 108 108 107 105 104 99 97 97 98 95 90 87 79 62 53 46 42 45 49 58 65 65 79 99 100 89 82 78 73 60 38 88 114 103 73 78 80 72 66 62 61 62 71 78 73 69 64 61
131 131 136 142 146 145 143 142 140 141 138 138 138 141 139 137 139 139 140 138 137 137 137 136 134 134 131 129 128 127 124 122 122 123 123 120 119 118 118 117 113 109 105 100 98 101 97 91 87 77 60 49 45 45 46 48 58 65 72 92 106 103 89 77 62 55 46 36 80 115 112 86 81 81 75 70 66 66 64 65 75 75 72 68 63
131 131 139 146 148 147 145 143 142 141 140 142 144 143 139 140 143 142 141 139 139 140 140 139 137 137 133 130 132 131 126 125 128 130 133 133 132 129 130 128 123 117 110 105 99 103 102 94 89 77 61 48 48 50 48 51 60 71 91 107 112 106 90 71 56 46 45 56 89 104 104 92 84 85 81 76 75 81 83 75 70 70 72 69 65
132 132 143 149 148 149 147 143 143 142 144 146 146 144 141 143 144 143 142 141 141 142 143 141 139 137 135 133 134 134 130 132 134 137 141 142 140 137 139 136 132 124 111 107 102 106 105 98 91 76 63 54 55 53 46 47 61 89 108 115 112 101 82 63 59 55 58 78 99 100 97 94 87 86 86 83 81 88 96 80 58 57 62 59 60
130 129 141 147 148 150 146 144 143 145 149 148 148 146 145 144 144 144 144 143 143 145 146 143 141 137 136 136 137 137 137 140 141 144 148 149 148 147 149 145 141 128 114 112 111 117 106 99 96 78 66 60 62 57 47 46 66 105 116 116 108 90 70 51 57 60 71 89 97 94 87 87 88 85 84 84 82 82 77 53 42 45 45 42 49
126 129 139 144 147 148 145 143 143 145 148 146 145 145 146 145 144 146 144 146 146 147 148 145 141 138 138 139 139 140 140 143 144 147 150 151 152 156 158 159 156 144 137 134 133 150 138 117 106 84 71 65 66 60 49 49 71 114 122 113 101 81 57 47 54 56 72 91 98 102 89 82 93 91 84 80 77 73 66 50 44 44 41 41 48
126 137 142 140 142 145 143 142 141 142 143 142 143 145 147 147 147 148 147 148 146 147 149 147 142 141 142 140 139 137 139 143 149 155 157 157 159 165 170 175 174 168 165 160 162 165 160 144 121 96 78 71 68 65 54 53 76 118 125 112 99 78 60 56 57 60 78 90 97 108 82 67 87 90 84 78 73 71 66 56 51 52 47 45 54
131 139 138 134 138 143 143 140 140 140 140 141 143 146 149 150 150 149 149 148 147 147 150 148 144 144 143 139 138 133 132 133 145 158 158 156 159 169 178 184 185 188 188 182 188 170 161 160 135 112 88 79 72 70 60 56 79 119 127 117 101 77 59 56 60 69 89 92 97 102 59 61 82 87 85 83 78 71 61 54 51 56 54 49 56
134 137 134 132 137 141 141 140 140 139 140 143 145 148 150 151 152 150 149 149 149 150 150 148 146 146 143 140 138 131 126 120 130 147 148 143 149 167 180 190 193 198 203 201 204 184 168 165 145 125 101 88 79 75 68 62 79 120 133 121 101 76 52 52 67 77 95 103 113 114 54 56 82 94 93 85 77 63 53 56 54 53 52 53 54
133 137 135 133 137 140 140 140 141 142 144 146 148 149 149 150 152 151 150 151 152 152 150 149 149 148 145 142 138 131 118 111 126 139 140 128 125 137 156 188 198 201 205 205 205 194 178 167 152 138 112 97 86 79 76 70 76 110 141 128 100 77 60 56 65 70 97 110 121 133 50 52 75 98 100 84 74 65 60 58 50 49 51 49 48
131 136 134 134 139 141 140 141 142 144 147 150 152 151 150 150 152 153 153 153 154 152 150 151 151 150 146 144 139 129 115 112 125 130 125 112 105 110 116 145 174 192 195 196 198 191 182 171 162 149 123 107 94 84 84 82 77 88 132 131 107 90 78 63 59 65 95 113 125 140 41 38 56 99 107 91 84 78 63 41 30 45 53 43 40
132 133 133 137 140 141 140 141 142 144 148 152 154 154 152 152 154 154 154 156 155 153 153 154 154 152 150 148 141 124 115 113 119 124 118 108 101 101 103 110 129 156 172 184 190 187 183 177 171 161 137 119 101 89 91 106 91 85 121 129 118 107 82 57 67 83 110 128 146 151 360 3 12 118 119 109 98 91 70 30 21 41 41 27 35
134 135 135 138 141 142 140 140 141 144 149 151 154 156 156 156 156 155 156 158 155 155 157 158 157 155 154 148 145 132 124 116 118 121 118 113 104 94 95 99 99 122 149 175 188 189 185 185 184 174 158 139 114 97 91 133 132 106 124 127 122 98 48 47 57 82 144 155 175 167 350 348 309 149 130 135 117 107 93 18 356 2 1 5 23
137 140 140 142 143 143 142 143 144 145 148 150 153 157 160 159 158 158 158 159 158 159 160 162 159 157 154 153 158 150 141 134 121 108 119 119 113 104 78 94 92 105 128 155 180 189 191 195 195 188 181 171 146 118 103 157 173 155 141 139 123 61 32 40 15 338 173 192 223 198 353 352 318 191 135 144 139 157 348 351 344 17 14 10 342
142 147 148 146 145 146 145 145 146 146 147 149 153 158 162 160 160 160 160 161 162 162 163 164 161 163 164 167 168 156 142 133 123 87 114 104 107 140 63 78 78 87 112 136 171 184 193 200 202 200 197 195 203 224 232 210 205 202 185 188 205 331 25 28 0 327 196 197 221 213 312 344 328 276 146 152 169 217 301 336 340 39 353 347 349
149 155 155 149 148 149 147 146 148 149 148 149 153 160 162 160 162 162 163 166 166 167 169 169 169 172 175 178 173 166 146 129 137 118 132 95 58 71 356 34 49 53 74 103 159 182 193 202 206 209 212 216 231 251 250 237 231 224 224 224 231 250 340 6 330 305 265 195 214 219 268 326 328 308 185 180 204 247 299 332 312 198 312 314 331
155 157 152 148 152 154 150 149 151 150 149 151 154 159 160 159 164 164 169 172 171 175 174 173 177 176 178 178 169 170 164 152 155 150 165 197 18 355 342 7 45 49 55 65 94 164 198 211 215 219 226 232 241 255 244 249 255 235 236 247 253 264 317 315 283 282 267 211 232 248 265 310 317 311 257 209 211 247 298 352 206 246 284 284 308
159 155 147 147 156 157 153 152 153 152 151 152 154 157 158 161 165 168 174 176 176 179 178 180 183 179 183 181 163 165 171 174 171 169 204 248 330 341 353 24 67 63 56 53 82 83 359 241 230 233 238 239 244 254 242 243 250 244 251 260 263 272 298 284 264 273 272 230 241 247 263 297 302 308 301 273 228 233 253 228 230 267 272 280 319
156 150 147 151 158 155 152 153 154 154 153 155 156 157 159 163 167 169 175 179 181 180 180 185 183 181 187 188 175 172 181 194 203 221 224 232 271 343 20 27 44 59 44 357 108 75 349 278 234 249 255 252 247 251 253 243 234 246 268 267 268 273 275 270 262 271 271 256 251 250 267 286 292 299 295 285 257 236 248 256 249 258 271 287 319
152 150 152 154 157 154 154 155 156 156 156 157 157 159 163 166 168 170 174 179 182 181 181 186 186 188 189 191 185 176 186 199 193 203 198 203 232 298 315 297 326 305 293 318 256 246 315 279 242 277 278 264 250 250 264 256 233 244 264 255 258 265 265 265 262 269 267 263 263 261 269 276 282 284 284 285 273 255 261 270 245 233 272 287 308
154 152 152 153 156 155 156 157 158 159 158 159 158 164 168 168 171 173 176 178 182 186 185 186 189 190 188 191 187 174 192 200 181 189 191 189 204 216 209 207 241 257 263 297 257 243 281 268 248 270 278 266 258 257 267 270 255 254 255 247 250 254 259 265 265 270 270 265 264 267 272 275 278 277 279 280 271 261 265 269 220 225 272 283 299
155 151 151 153 157 156 158 158 160 161 161 162 162 171 175 171 172 174 179 180 183 189 187 188 191 188 189 192 181 175 200 205 186 194 197 193 197 194 194 201 197 201 231 253 250 244 253 258 252 260 268 265 267 269 266 269 271 269 261 254 252 250 254 262 269 272 272 276 278 276 274 273 272 274 279 277 266 257 264 265 213 224 263 273 290
152 150 151 153 157 158 159 160 162 162 164 165 165 178 182 170 169 174 183 183 182 189 186 186 188 185 191 194 185 184 198 199 194 202 202 198 195 191 200 220 211 190 224 238 247 253 245 249 255 257 269 273 274 279 276 270 276 279 275 268 255 250 252 252 256 261 267 279 286 284 277 273 269 271 275 275 268 258 261 257 221 223 254 271 282
150 150 152 153 158 159 161 162 163 163 165 168 170 181 176 165 168 178 189 182 178 187 184 184 183 183 189 192 193 192 198 196 197 205 203 198 192 192 198 216 234 223 239 246 250 260 259 260 257 260 270 276 273 281 289 285 285 281 282 286 276 269 269 262 254 249 253 260 271 282 277 273 272 270 270 271 269 261 259 251 231 219 236 258 267
148 149 152 153 158 159 162 163 162 164 166 171 173 174 168 165 171 181 191 181 179 185 183 187 185 183 187 188 191 192 205 205 201 204 197 194 192 190 201 221 244 237 244 255 259 256 262 273 267 263 267 273 275 280 286 285 289 286 283 293 293 287 285 284 265 250 249 249 253 267 269 274 277 272 269 269 267 263 258 250 242 230 237 242 243
147 150 153 154 159 160 162 163 163 165 167 173 171 165 169 170 173 183 192 184 186 186 180 185 187 187 187 186 190 191 207 207 195 199 193 189 191 189 199 217 232 238 244 248 255 248 249 269 273 269 265 271 275 276 282 282 286 287 284 290 297 295 288 287 276 259 257 255 253 257 262 271 276 272 268 265 265 265 259 252 242 235 245 239 229
150 155 157 157 160 160 162 162 163 165 166 172 168 164 170 167 171 183 190 186 185 183 179 183 188 189 181 179 186 191 201 199 190 199 196 191 200 203 206 214 218 227 240 241 252 253 252 266 274 278 273 273 277 276 283 286 287 289 289 292 294 296 291 290 292 278 268 263 261 262 260 260 268 273 269 263 262 264 260 254 241 232 241 234 224
156 157 159 158 159 159 160 161 162 167 170 171 168 168 168 165 173 181 185 185 180 179 181 185 188 181 174 177 185 191 196 193 193 203 204 203 207 217 234 238 220 219 237 244 255 257 254 264 272 284 278 279 287 284 282 282 284 285 286 289 286 287 289 289 290 286 278 271 263 259 253 252 257 264 266 261 259 261 259 254 244 238 240 230 224
156 155 158 156 157 159 159 161 164 168 170 164 161 167 167 166 175 178 182 182 177 186 186 185 186 174 175 183 186 192 194 193 197 202 201 204 209 215 225 227 213 222 240 245 256 257 257 266 269 280 282 288 295 291 288 284 285 284 283 287 286 287 291 291 285 279 279 277 266 257 254 257 254 250 259 264 262 261 258 254 247 242 241 233 226
153 154 155 156 156 158 158 159 162 163 163 154 152 163 163 164 176 178 179 180 184 196 187 185 189 178 180 185 187 193 196 198 201 201 203 207 217 217 213 213 212 228 240 241 255 264 268 270 274 285 289 296 300 297 297 291 290 291 291 294 291 290 291 289 286 284 281 277 275 271 265 262 254 251 259 262 263 261 258 258 252 244 242 238 230
155 154 154 156 152 154 154 152 156 158 155 153 150 156 161 167 178 164 163 181 203 246 172 185 199 192 187 187 193 194 192 200 200 203 213 213 221 220 208 214 225 236 238 240 256 266 271 277 289 297 293 295 298 300 302 297 295 295 293 292 289 289 289 289 289 289 286 282 281 277 271 267 262 267 267 259 257 255 254 260 257 248 242 240 236
155 153 153 154 150 151 149 147 153 153 150 155 150 152 164 169 154 122 120 172 310 358 187 208 253 228 200 195 195 190 189 201 201 202 215 215 214 215 211 219 228 240 247 253 264 266 274 286 297 309 306 302 299 301 304 301 298 297 295 292 289 287 287 289 289 285 284 285 284 276 272 274 274 274 269 262 257 250 252 258 258 250 243 240 238
154 155 153 151 149 148 147 146 149 147 146 151 150 151 156 147 135 141 156 192 204 195 190 211 264 259 228 222 205 199 203 204 201 203 212 213 204 201 207 213 224 247 259 272 281 280 291 300 303 310 309 307 303 301 303 303 300 299 296 292 291 289 285 284 283 278 277 279 278 274 274 278 278 268 259 264 265 254 251 253 250 245 242 240 238
156 155 151 149 146 144 145 146 146 146 145 149 157 155 149 151 168 180 184 185 186 189 180 184 219 230 233 233 213 215 220 206 201 211 214 209 197 191 210 218 227 256 274 291 302 306 307 308 305 305 305 308 308 305 303 304 303 300 297 295 295 293 286 281 277 272 270 272 274 276 278 276 274 269 260 264 263 253 250 250 246 243 241 240 239
156 153 150 148 144 143 144 143 143 147 152 158 164 160 161 171 174 180 183 165 154 173 176 184 225 235 234 224 203 208 213 199 207 222 218 207 197 192 222 259 280 287 296 305 313 311 310 310 308 306 305 303 305 310 310 308 304 301 305 307 303 298 288 278 272 269 270 273 274 276 280 275 271 272 269 269 266 259 256 252 247 245 244 241 240
155 155 151 148 147 144 141 140 146 158 163 162 162 159 164 174 173 173 169 149 150 171 180 191 199 208 237 235 202 203 200 192 223 233 220 211 230 246 285 329 320 313 314 319 318 313 313 309 307 307 305 302 302 305 308 307 306 310 317 313 305 305 297 277 263 261 267 271 270 269 272 271 269 270 267 268 272 271 265 261 255 249 245 239 238
156 156 152 152 150 142 140 148 161 169 161 151 154 152 150 161 170 167 153 148 161 179 189 190 177 180 238 253 229 216 203 199 226 229 216 219 288 322 345 339 330 331 328 331 328 321 318 311 308 307 306 309 306 307 310 303 301 310 315 305 302 317 310 293 264 265 273 274 270 265 264 266 267 268 265 263 267 270 270 271 265 252 246 241 236
159 157 155 156 150 141 149 164 172 167 150 143 147 144 140 147 158 159 152 156 168 185 194 183 162 164 218 239 227 216 207 202 220 224 203 209 315 340 352 348 345 346 341 337 332 329 328 320 317 315 312 315 315 320 323 314 306 308 317 314 306 299 295 354 344 308 294 284 272 263 260 262 261 260 262 261 260 261 264 268 263 254 251 245 237
164 160 159 155 146 147 163 172 167 156 150 151 149 147 150 150 153 153 147 152 163 180 180 153 137 152 238 253 240 225 221 203 211 220 94 26 352 356 0 360 354 351 348 345 339 334 333 328 327 328 327 326 325 324 323 320 317 307 291 283 297 295 306 345 335 314 311 307 289 275 265 260 258 256 258 260 259 258 257 259 260 258 253 248 243
168 162 157 150 147 157 171 169 155 151 153 152 152 153 151 149 147 139 132 136 134 140 141 106 125 157 230 260 267 288 258 205 127 59 49 27 13 11 6 3 356 350 352 352 346 338 334 331 333 335 335 333 329 324 320 323 325 315 296 276 270 270 288 324 330 309 313 312 307 301 286 273 268 264 261 257 256 258 257 255 256 255 250 247 247
165 157 151 148 153 163 168 162 154 148 146 148 151 150 146 142 135 126 125 128 118 121 140 140 135 136 170 205 136 310 270 64 55 49 41 27 26 20 8 5 360 352 352 351 341 340 342 339 338 336 333 333 332 328 325 327 328 324 318 305 291 281 279 290 288 294 313 308 308 311 302 290 282 275 268 257 252 254 257 255 252 251 250 245 243
160 154 154 153 157 162 159 155 150 143 142 147 149 150 148 144 136 131 131 129 129 139 141 132 125 138 161 152 153 207 110 63 48 44 35 25 23 19 10 5 359 352 349 346 341 347 353 348 343 338 334 336 337 332 328 330 329 327 327 322 314 305 296 288 277 273 277 297 306 307 304 303 297 288 278 266 259 257 256 255 252 250 249 245 242
158 155 158 155 152 154 150 144 141 140 143 147 148 149 146 142 141 139 137 141 146 141 134 135 148 159 155 138 157 139 70 58 40 36 32 27 21 12 8 2 358 354 346 341 343 349 351 347 343 339 338 338 336 333 328 330 330 326 325 321 317 315 309 302 295 286 265 267 298 303 307 309 303 297 291 276 268 262 255 254 255 253 251 248 246
158 156 153 148 142 143 140 133 134 137 139 145 149 149 150 150 146 141 139 139 136 131 131 139 147 150 150 138 105 49 53 46 34 25 11 20 24 10 2 1 360 353 347 347 347 352 353 349 347 343 341 337 333 332 327 325 323 317 314 314 313 314 312 310 310 307 296 282 287 294 304 308 304 303 302 292 280 271 260 254 255 256 254 252 249
158 155 146 140 138 139 134 128 131 133 133 141 145 146 150 146 138 137 134 127 122 120 123 130 143 155 150 113 69 42 28 17 29 22 3 11 17 5 2 3 1 354 356 360 354 352 351 349 351 349 342 336 331 329 324 319 317 314 314 314 313 314 314 309 309 311 308 298 298 300 302 305 303 301 304 304 299 289 270 257 253 253 254 255 252